User: anonymous   Login
Location: Newark
(53.3333°N, 83.7500°E)
Time: 07:41:58
(UTC+00:00)
Language:

A-11 Canister half - Orbit

View from above orbital plane
View from above orbital plane
View from above satellite
View from above satellite

Ground track
Ground track

The orbit data is extracted from the following two-line orbital elements,

1    51U 60009C   19316.93547144 -.00000041 +00000-0 +41237-3 0  9994
2    51 047.2133 300.3614 0107630 237.7097 121.3227 12.18274757637577
Epoch (UTC): 12 November 2019 22:27:04
Eccentricity: 0.0107630
inclination: 47.2133°
perigee height: 1514 km
apogee height: 1686 km
right ascension of ascending node: 300.3614°
argument of perigee: 237.7097°
revolutions per day: 12.18274757
mean anomaly at epoch: 121.3227°
orbit number at epoch: 63757

The dashed part of the orbit path shows where the satellite is in the earth's shadow,  

DLR